Temperature
23 25 26 26 26 25 24 22 22 22 22 22 22 21 22 23 22 22 22 22 22 22 22 22 22 21 21 21 20 20 20 20 19 19 19 19 18 18 18 18 17 17 17 17
24 25 26 25 25 25 25 25 23 23 22 22 22 22 22 22 22 22 22 22 22 22 22 22 21 21 21 21 20 20 20 19 19 19 18 18 18 18 17 17 17 17 17 16
22 23 24 23 24 24 24 24 23 22 22 21 21 21 21 21 21 21 22 22 22 21 21 21 21 21 21 20 20 19 19 19 18 18 18 18 18 17 17 17 17 17 16 16
20 22 23 22 23 24 23 23 22 22 21 21 21 21 22 22 22 22 21 22 22 21 21 21 21 21 20 20 20 19 19 18 18 18 18 18 17 17 17 17 17 16 16 16
19 21 22 22 23 23 23 22 22 21 21 21 22 21 21 22 22 22 22 21 21 21 21 21 20 20 20 19 19 19 19 18 18 18 18 17 17 17 17 17 16 16 16 16
19 21 21 21 22 23 22 21 21 21 20 21 21 19 19 22 22 22 22 21 21 21 21 20 20 20 20 19 18 18 18 18 18 17 17 17 17 16 16 16 16 16 16 15
18 19 19 20 21 23 21 20 21 21 21 21 20 20 21 22 22 22 21 21 21 20 20 20 20 20 19 19 18 18 18 17 17 17 17 17 16 16 16 16 15 15 15 15
17 18 19 20 20 20 19 20 21 21 21 21 21 21 21 21 21 21 21 20 20 20 20 19 19 19 19 18 18 17 17 17 17 16 16 16 16 16 15 15 15 15 15 15
17 17 18 20 20 20 21 20 20 20 21 21 20 20 20 20 20 20 20 20 20 19 19 19 19 18 18 18 17 17 17 16 16 16 16 15 15 15 15 15 15 14 14 14
16 17 18 19 20 20 20 20 20 20 20 20 20 19 19 19 19 19 19 19 19 19 18 18 18 17 17 17 17 16 16 16 16 15 15 15 15 15 15 14 14 14 14 14
16 17 18 19 19 20 20 20 20 20 20 19 19 19 19 19 19 19 18 18 18 18 18 17 17 17 17 16 16 16 16 15 15 15 15 15 14 14 14 14 14 14 14 14
16 17 16 18 19 19 19 19 19 19 19 19 19 19 18 18 18 18 18 18 18 17 17 17 17 16 16 16 15 15 15 15 15 15 14 14 14 14 14 14 14 13 13 13
18 19 19 19 19 19 19 19 19 18 18 18 18 18 18 17 17 17 17 17 17 17 17 16 16 16 15 15 15 15 15 14 14 14 14 14 14 14 14 13 13 13 13 13
19 19 18 18 18 19 18 18 18 17 17 17 17 17 17 17 17 16 16 16 16 16 16 15 15 15 15 15 14 14 14 14 14 14 14 14 13 13 13 13 13 13 13 13
18 18 18 18 18 18 18 18 17 17 17 17 17 17 17 16 16 16 16 15 15 15 15 15 15 14 14 14 14 14 14 14 14 13 13 13 13 13 13 13 13 13 13 12
18 18 18 18 17 17 17 17 17 16 16 16 16 16 16 16 15 15 15 15 15 15 14 14 14 14 13 13 13 13 13 13 13 13 13 13 13 13 13 13 12 12 12 12
17 17 17 17 17 17 17 17 16 16 16 15 15 15 15 15 15 15 15 14 14 14 14 14 14 13 13 13 13 13 13 13 13 13 13 13 12 12 12 12 12 12 12 12
17 17 17 17 17 16 16 16 16 16 15 15 15 15 14 14 14 14 14 14 14 13 13 13 13 13 13 13 13 13 12 12 12 12 12 12 12 12 12 12 12 12 11 11
17 16 16 16 16 16 16 15 15 15 15 15 14 14 14 14 14 14 13 13 13 13 13 13 13 13 13 13 13 12 12 12 12 12 12 12 12 12 12 11 11 11 11 11
16 16 16 16 16 15 15 15 15 15 15 14 14 14 14 14 14 13 13 13 13 13 13 13 13 12 12 12 12 12 12 12 12 12 12 12 12 11 11 11 11 11 11 11
15 15 15 15 15 15 15 14 14 14 14 14 14 14 13 13 13 13 13 13 13 13 12 12 12 12 12 12 12 12 12 12 12 12 12 12 11 11 11 11 11 11 11 11
14 14 14 14 14 14 14 14 14 14 14 14 13 13 13 13 13 12 12 12 12 12 12 12 12 12 12 12 12 12 12 12 12 12 11 11 11 11 11 11 11 10 10 10
14 14 14 14 14 14 14 14 13 13 13 13 13 13 13 12 12 12 12 12 12 12 12 12 12 12 12 12 12 11 11 11 11 11 11 11 11 11 11 10 10 10 10 10
13 13 13 13 13 13 13 13 13 13 13 13 13 12 12 12 12 12 12 12 12 12 12 12 11 11 11 11 11 11 11 11 11 11 11 10 10 10 10 10 10 10 10 10
13 13 13 13 13 13 13 12 12 12 12 12 12 12 12 12 12 12 12 12 11 11 11 11 11 11 11 11 11 11 11 11 10 10 10 10 10 10 10 10 10 10 9 9
12 13 13 13 13 12 12 12 12 12 12 12 12 11 11 11 11 11 11 11 11 11 11 11 11 11 11 11 10 10 10 10 10 10 10 10 10 10 9 9 9 9 9 9
12 12 12 12 12 12 12 12 12 12 11 11 11 11 11 11 11 11 11 11 11 11 11 11 10 10 10 10 10 10 10 10 10 9 9 9 9 9 9 9 9 9 9 9
Wind_Speed
5 4 1 2 2 2 3 7 8 8 7 8 8 9 8 7 7 8 8 8 9 9 8 8 7 7 7 6 6 6 6 5 5 5 5 4 4 3 3 3 4 4 4 3
3 4 2 3 4 2 2 3 5 6 4 5 5 5 6 7 8 8 9 9 8 8 8 8 7 7 6 5 6 6 6 5 4 4 4 4 4 4 3 3 2 2 3 3
2 4 4 3 4 1 1 1 5 5 6 5 4 5 7 7 7 8 8 9 10 8 8 8 6 6 6 6 5 6 5 5 4 4 4 4 4 3 3 3 3 3 3 3
2 3 2 6 3 1 3 2 3 5 5 8 7 5 4 5 7 7 8 8 7 7 6 6 6 6 6 5 6 6 5 4 4 4 4 3 3 3 3 3 3 3 3 3
4 2 3 4 4 1 2 1 2 6 7 6 8 7 2 3 6 7 8 7 6 6 6 6 6 6 7 5 4 4 4 4 4 5 4 3 3 3 3 2 2 3 3 3
4 3 4 5 7 3 4 1 1 4 7 8 7 4 4 4 5 6 6 6 6 5 5 6 6 6 7 5 5 5 6 6 5 5 5 4 4 3 2 2 3 2 2 3
3 3 3 5 8 3 2 5 3 3 6 6 4 6 6 5 4 5 6 7 7 6 5 5 5 6 6 5 5 5 5 4 4 4 4 4 3 3 2 2 2 2 2 2
2 2 4 6 4 1 4 2 2 2 3 4 3 4 5 6 6 6 6 6 6 6 5 5 6 7 5 4 4 4 4 4 3 4 4 3 3 2 2 2 1 1 1 2
5 5 5 2 1 1 2 3 2 3 2 4 5 5 5 5 6 6 6 6 6 6 6 5 5 6 6 4 4 4 4 3 3 2 2 3 3 3 2 2 2 2 1 2
1 3 3 1 1 3 4 3 2 3 4 5 5 5 5 5 5 5 5 6 5 6 6 5 4 4 4 4 4 4 3 2 2 2 2 2 2 2 2 2 2 2 2 3
1 2 2 3 2 1 2 3 4 3 3 4 5 5 6 5 4 4 4 4 5 6 5 5 4 3 3 3 4 3 2 1 1 2 2 1 1 1 2 3 4 4 4 4
4 5 3 3 3 1 3 3 3 4 4 3 4 5 6 5 4 4 4 4 4 5 5 4 4 3 2 2 3 3 2 1 1 1 1 1 1 1 2 1 2 3 5 4
5 5 4 3 0 3 3 3 4 5 5 5 5 6 7 5 4 4 4 4 5 5 4 4 3 2 1 2 2 3 3 2 1 1 1 1 2 2 1 2 3 3 3 4
2 3 2 1 1 2 4 6 6 6 6 6 5 6 6 5 4 4 3 3 4 4 4 3 3 1 1 2 3 3 2 1 2 1 1 2 2 2 2 2 2 3 3 3
0 3 4 3 3 4 5 6 8 7 6 5 4 6 6 5 5 3 2 2 3 4 3 3 3 1 1 2 2 2 2 1 1 1 1 1 1 1 1 2 2 2 2 2
2 3 4 4 4 5 6 6 6 5 5 4 4 4 3 4 4 3 3 3 3 3 3 3 2 2 1 2 2 1 1 2 2 2 1 1 1 1 1 2 2 2 2 2
4 3 3 3 4 4 4 5 5 4 4 4 4 3 2 3 3 2 2 2 3 3 3 3 3 2 1 2 2 1 1 2 2 2 2 3 2 3 2 2 2 2 3 4
4 4 5 6 6 6 4 5 5 5 4 4 4 3 2 3 3 2 1 1 2 1 1 3 3 2 2 2 2 2 2 2 2 2 2 2 3 3 2 2 3 3 3 3
3 4 5 6 6 6 5 4 4 3 3 4 4 2 1 2 2 1 1 1 2 2 3 3 3 2 2 2 2 2 2 2 2 2 2 2 2 2 2 3 3 3 3 2
4 5 6 5 5 5 5 4 4 2 2 3 3 2 1 1 1 2 1 1 3 4 4 3 3 2 3 3 2 2 2 2 2 2 2 2 3 3 3 3 3 3 3 3
4 5 5 5 4 4 4 4 4 3 2 3 2 2 2 2 1 2 2 2 4 3 3 4 3 2 2 2 2 2 2 2 3 3 3 3 3 3 3 3 3 3 3 2
3 3 3 4 4 3 2 2 3 3 2 1 1 1 2 1 1 1 2 3 3 3 2 2 2 3 3 2 2 2 2 2 2 2 2 2 2 2 2 2 2 2 2 2
2 2 2 2 3 2 2 2 2 3 2 1 1 1 1 2 2 2 2 3 2 2 2 2 3 4 3 2 2 2 2 2 1 1 2 2 2 2 2 2 2 2 2 2
1 1 1 1 3 3 2 1 1 2 2 1 1 1 1 1 1 1 2 2 2 1 1 3 3 3 3 1 1 1 1 1 1 1 1 1 1 1 1 1 2 2 2 2
1 1 1 2 3 2 2 2 2 1 1 0 1 1 1 2 2 2 1 1 2 1 0 1 2 2 1 1 1 1 1 1 1 1 1 1 1 1 1 1 1 1 2 2
1 1 2 2 2 2 2 2 1 0 1 0 1 1 1 1 1 1 1 1 1 1 1 0 1 1 1 1 1 1 1 1 1 1 1 1 0 1 1 1 1 1 2 2
1 1 1 1 1 2 2 2 2 1 1 2 1 1 1 0 0 0 0 0 1 1 1 1 1 1 1 1 1 1 1 1 1 1 1 1 1 1 1 2 1 1 2 2
Wind_Direction
215 231 249 304 304 256 184 183 179 197 193 214 194 177 173 169 159 144 144 149 154 158 167 170 170 171 170 172 171 169 166 170 183 182 176 172 169 177 178 181 189 193 192 201
320 330 357 349 333 301 249 195 167 155 207 226 177 154 155 157 150 148 152 152 153 157 160 164 166 165 161 162 164 160 159 166 169 170 172 172 176 179 175 183 189 183 193 202
265 315 24 323 290 233 265 206 160 182 208 167 155 166 168 162 155 156 155 151 155 161 165 162 162 156 155 159 150 150 155 160 163 160 169 181 183 175 187 195 187 192 203 202
149 56 225 249 282 99 99 45 113 147 163 159 157 151 145 159 161 159 157 157 158 156 150 152 148 143 143 140 142 146 149 159 168 164 168 172 165 176 201 195 194 204 214 217
125 162 256 295 305 304 139 10 91 133 130 128 116 83 51 167 163 161 159 157 155 151 144 140 146 154 142 140 145 152 162 177 180 174 170 166 175 193 201 193 204 217 218 217
126 144 219 263 299 290 98 49 332 121 133 137 120 124 222 197 154 148 140 143 142 140 134 141 153 150 140 153 169 185 192 190 183 174 171 177 193 205 202 190 209 221 230 227
134 173 245 285 311 18 121 225 235 144 144 137 153 184 190 165 149 149 142 143 141 141 143 153 153 140 141 157 183 194 183 175 172 174 187 189 194 198 191 203 217 234 241 256
113 138 253 304 7 78 223 212 134 120 135 127 140 133 131 129 130 128 127 129 136 139 141 142 141 138 145 167 185 173 161 160 172 184 193 183 176 193 199 199 219 248 259 286
178 206 245 273 213 240 126 106 111 114 102 121 118 115 118 124 129 129 133 136 138 134 131 133 141 145 152 170 159 152 150 158 176 181 186 176 173 189 204 197 199 238 238 246
150 263 280 320 45 59 77 83 87 109 112 110 114 119 127 131 127 125 134 137 132 128 133 143 148 145 153 156 147 140 152 173 176 174 199 208 200 193 194 204 213 226 231 236
192 261 347 346 11 54 56 73 79 89 108 108 120 127 129 130 127 126 126 131 135 135 144 152 142 135 140 136 129 132 146 159 182 195 200 208 235 237 218 222 216 214 229 222
208 217 186 237 275 50 75 72 86 84 68 92 107 118 116 120 120 118 117 120 122 126 128 133 131 130 131 132 134 139 146 160 186 194 187 180 182 339 352 291 281 250 237 227
191 191 183 214 175 73 83 92 92 93 101 105 90 103 106 105 103 99 99 116 126 125 125 128 128 132 154 147 134 142 164 183 193 189 185 192 196 192 263 326 338 321 281 252
170 127 94 74 129 82 91 95 87 79 86 100 103 108 111 105 103 99 110 140 138 128 124 126 126 141 195 153 143 148 164 191 189 205 212 214 217 217 210 223 270 296 303 275
149 147 159 139 101 89 91 94 89 83 81 82 97 109 110 113 122 130 126 121 119 121 123 124 126 177 221 148 139 157 174 198 197 200 213 213 218 219 223 231 242 259 285 308
133 120 116 113 118 116 108 102 99 97 94 85 84 92 109 117 117 117 117 123 127 141 159 154 170 218 204 146 138 166 210 218 205 195 207 213 228 230 238 236 240 244 245 249
138 146 126 126 133 127 125 129 129 124 112 105 109 115 116 102 97 101 112 136 155 176 185 178 195 210 174 160 161 191 224 244 237 221 223 223 221 225 227 223 221 234 247 238
151 161 161 154 144 133 125 118 116 112 119 117 110 109 122 125 132 152 185 149 123 130 206 206 197 188 184 187 188 203 221 235 230 223 225 223 221 220 220 222 228 234 253 250
105 138 135 124 124 123 119 116 116 117 116 116 120 134 150 159 163 176 173 146 164 209 245 230 199 185 210 229 216 219 225 237 248 242 226 229 230 233 230 228 234 239 243 242
94 118 121 113 110 113 122 130 125 118 124 132 132 133 142 195 185 170 159 203 228 223 222 216 199 202 215 231 235 228 231 243 241 239 234 226 228 235 234 233 234 238 242 237
93 88 103 112 108 106 119 130 132 128 125 129 143 175 198 218 224 182 160 247 269 242 207 200 204 222 227 232 229 233 236 239 236 236 235 233 232 237 239 236 235 231 230 232
91 98 99 112 112 104 103 114 130 133 129 144 190 191 183 199 218 245 236 233 248 221 187 198 217 228 227 226 219 227 231 229 226 227 227 221 220 227 242 242 235 229 220 216
106 117 122 140 136 132 102 100 128 139 146 168 192 197 217 226 192 182 258 266 240 207 205 220 232 236 238 230 230 232 219 212 218 215 211 209 205 208 223 231 227 217 209 214
105 125 186 154 109 102 92 94 118 130 140 147 164 182 181 190 273 254 226 223 213 201 240 244 241 242 239 217 222 231 216 200 186 184 203 237 242 235 228 223 221 215 202 187
166 174 138 115 107 121 146 140 100 93 98 66 305 289 244 202 207 239 238 216 200 154 335 249 225 215 210 218 213 199 183 189 197 187 179 223 260 275 277 266 240 196 179 180
188 165 151 147 152 151 146 133 124 202 200 248 310 318 323 296 194 189 215 221 201 160 150 241 236 199 214 214 206 194 185 183 172 168 187 205 224 244 258 260 234 193 192 198
92 103 105 87 109 147 149 147 157 202 199 187 233 276 277 269 156 181 196 190 191 191 208 234 230 207 216 218 214 191 180 180 167 164 171 175 174 193 214 220 218 201 182 181
Height
1470 1465 1462 1464 1466 1465 1471 1477 1486 1484 1482 1475 1470 1471 1472 1473 1475 1477 1480 1482 1484 1485 1488 1490 1492 1494 1495 1498 1499 1501 1502 1503 1504 1506 1506 1507 1507 1507 1508 1508 1508 1508 1509 1509
1469 1462 1461 1466 1464 1463 1464 1465 1470 1473 1476 1466 1467 1468 1471 1472 1473 1476 1478 1480 1482 1484 1486 1488 1490 1492 1494 1496 1498 1499 1500 1501 1502 1503 1504 1504 1505 1505 1505 1506 1506 1506 1506 1506
1480 1469 1467 1477 1467 1464 1465 1462 1465 1473 1469 1464 1466 1468 1469 1470 1472 1474 1476 1478 1481 1483 1485 1487 1488 1490 1492 1495 1496 1498 1498 1499 1500 1501 1501 1501 1502 1503 1503 1503 1503 1503 1503 1503
1481 1478 1489 1476 1459 1458 1461 1461 1459 1460 1460 1461 1464 1466 1468 1469 1470 1473 1475 1477 1479 1481 1484 1486 1487 1489 1491 1493 1494 1495 1496 1496 1498 1498 1498 1499 1499 1500 1500 1500 1500 1500 1500 1500
1486 1488 1483 1470 1461 1459 1462 1466 1461 1460 1461 1462 1464 1467 1470 1470 1471 1472 1473 1476 1478 1480 1482 1484 1486 1488 1489 1491 1492 1493 1493 1493 1494 1495 1496 1496 1496 1497 1497 1497 1497 1497 1497 1497
1482 1486 1490 1476 1460 1456 1459 1471 1463 1460 1461 1463 1464 1473 1472 1469 1470 1471 1472 1475 1477 1479 1481 1482 1484 1486 1487 1488 1489 1490 1491 1491 1492 1493 1493 1493 1494 1494 1495 1494 1494 1494 1494 1493
1482 1485 1481 1466 1458 1456 1473 1473 1461 1460 1459 1461 1463 1465 1467 1467 1468 1470 1471 1473 1475 1477 1479 1480 1482 1484 1485 1485 1486 1488 1489 1489 1490 1491 1491 1491 1492 1492 1492 1492 1491 1491 1490 1490
1483 1487 1484 1462 1460 1464 1466 1460 1459 1459 1459 1459 1461 1462 1463 1465 1466 1469 1471 1472 1473 1476 1477 1478 1480 1481 1482 1483 1484 1485 1486 1486 1487 1488 1489 1489 1489 1489 1489 1489 1488 1488 1487 1487
1476 1477 1467 1462 1461 1461 1459 1459 1459 1460 1460 1460 1460 1461 1462 1464 1465 1467 1469 1471 1473 1474 1475 1476 1478 1479 1479 1480 1481 1483 1483 1484 1485 1485 1486 1486 1486 1486 1486 1485 1485 1484 1484 1483
1469 1466 1463 1462 1461 1460 1460 1460 1460 1461 1461 1460 1460 1461 1461 1464 1465 1467 1468 1469 1471 1472 1473 1474 1476 1477 1477 1478 1479 1480 1481 1481 1482 1482 1483 1483 1483 1483 1483 1482 1482 1481 1481 1480
1467 1464 1462 1461 1460 1460 1459 1460 1460 1461 1461 1460 1460 1461 1462 1463 1465 1466 1467 1468 1469 1470 1470 1472 1473 1475 1475 1475 1476 1477 1478 1478 1479 1479 1479 1479 1480 1480 1480 1480 1480 1479 1478 1478
1466 1461 1462 1461 1460 1459 1459 1459 1459 1459 1459 1460 1460 1461 1462 1463 1465 1466 1466 1466 1468 1469 1470 1471 1472 1472 1473 1474 1474 1475 1475 1476 1476 1476 1476 1476 1477 1477 1477 1477 1477 1477 1476 1475
1458 1458 1459 1458 1458 1458 1458 1458 1459 1458 1459 1459 1460 1460 1461 1462 1464 1465 1465 1466 1466 1467 1468 1469 1469 1470 1471 1471 1472 1473 1473 1473 1473 1473 1474 1474 1474 1474 1473 1474 1474 1473 1472 1472
1456 1456 1457 1457 1457 1456 1456 1457 1458 1459 1459 1459 1459 1460 1461 1462 1464 1465 1465 1466 1467 1467 1467 1468 1468 1469 1469 1469 1470 1470 1470 1471 1471 1471 1471 1471 1471 1471 1471 1470 1470 1469 1470 1469
1455 1456 1456 1456 1456 1456 1456 1457 1458 1459 1459 1459 1459 1460 1461 1462 1463 1465 1465 1466 1466 1466 1466 1466 1466 1467 1468 1468 1468 1468 1468 1468 1468 1469 1469 1469 1469 1469 1469 1468 1468 1467 1467 1466
1454 1454 1455 1455 1455 1456 1456 1457 1458 1459 1459 1460 1460 1461 1462 1461 1462 1463 1464 1464 1464 1464 1464 1465 1465 1465 1466 1466 1466 1466 1466 1466 1466 1466 1466 1466 1466 1466 1466 1466 1465 1465 1464 1463
1452 1453 1454 1454 1454 1455 1456 1457 1458 1459 1460 1461 1461 1461 1462 1462 1462 1462 1463 1463 1463 1464 1464 1464 1463 1463 1464 1464 1464 1464 1463 1463 1463 1463 1463 1463 1463 1463 1463 1463 1462 1462 1461 1461
1450 1451 1452 1453 1453 1454 1455 1457 1458 1458 1459 1460 1461 1461 1461 1461 1461 1461 1461 1462 1462 1462 1462 1462 1462 1462 1462 1462 1462 1462 1461 1461 1461 1460 1460 1460 1460 1460 1460 1460 1459 1459 1458 1457
1448 1450 1451 1451 1452 1453 1454 1456 1457 1458 1458 1459 1460 1460 1460 1460 1459 1460 1460 1460 1460 1460 1460 1460 1460 1460 1460 1459 1459 1459 1459 1458 1458 1458 1457 1457 1457 1457 1457 1456 1456 1455 1455 1454
1448 1448 1449 1450 1451 1452 1453 1455 1456 1457 1457 1458 1458 1458 1458 1459 1459 1459 1458 1458 1458 1457 1458 1458 1457 1457 1457 1456 1456 1456 1456 1455 1455 1455 1454 1454 1454 1453 1453 1452 1452 1451 1451 1450
1448 1448 1449 1449 1450 1452 1453 1453 1454 1455 1456 1456 1456 1456 1456 1457 1457 1457 1456 1456 1456 1455 1455 1455 1454 1454 1453 1453 1453 1453 1453 1452 1452 1452 1451 1451 1450 1450 1449 1448 1448 1448 1447 1447
1447 1448 1448 1449 1450 1451 1452 1452 1453 1453 1454 1455 1455 1455 1454 1454 1454 1454 1454 1454 1453 1452 1452 1452 1451 1451 1451 1451 1450 1450 1450 1449 1449 1449 1448 1447 1447 1446 1446 1445 1445 1444 1444 1443
1446 1447 1447 1448 1449 1450 1451 1451 1452 1452 1452 1453 1453 1453 1452 1452 1452 1452 1451 1451 1450 1450 1449 1449 1448 1448 1448 1448 1447 1447 1447 1446 1446 1445 1445 1444 1444 1443 1442 1442 1441 1441 1440 1440
1446 1446 1447 1447 1448 1449 1449 1450 1450 1451 1451 1451 1451 1451 1450 1450 1449 1449 1449 1448 1448 1447 1447 1446 1446 1446 1445 1445 1445 1445 1444 1444 1443 1442 1442 1442 1441 1440 1439 1439 1438 1438 1438 1437
1446 1446 1446 1447 1447 1448 1449 1449 1449 1449 1449 1449 1449 1449 1448 1448 1447 1447 1446 1446 1445 1445 1444 1444 1444 1443 1443 1443 1442 1442 1442 1441 1440 1440 1439 1439 1438 1437 1436 1436 1436 1435 1435 1434
1445 1445 1446 1446 1447 1447 1448 1448 1448 1448 1447 1447 1447 1447 1446 1446 1445 1444 1444 1444 1443 1443 1442 1442 1442 1441 1441 1441 1440 1440 1439 1439 1438 1438 1437 1436 1435 1434 1434 1433 1433 1432 1432 1432
1445 1445 1446 1446 1446 1447 1447 1447 1447 1446 1446 1445 1445 1445 1444 1444 1443 1443 1442 1442 1441 1441 1440 1440 1440 1440 1439 1439 1438 1437 1437 1437 1436 1436 1435 1434 1433 1432 1431 1431 1430 1430 1429 1429